Weather History for KJFZ - April, 2014

Change the Weather History Date:

Thursday, April 10, 2014

  Actual Average (KBLF) Record (KBLF)
Temperature  
Mean Temperature 57 °F 54 °F  
Max Temperature 69 °F 63 °F 85 °F (2013)
Min Temperature 45 °F 44 °F 20 °F (1985)
Degree Days  
Heating Degree Days 8 12  
Month to date heating degree days 135  
Since 1 July heating degree days 4244  
Cooling Degree Days 0 1  
Month to date cooling degree days 8  
Year to date cooling degree days 12  
Growing Degree Days 7 (Base 50)    
Moisture  
Dew Point 30 °F    
Average Humidity 37    
Maximum Humidity 51    
Minimum Humidity 22    
Precipitation  
Precipitation 0.00 in 0.11 in 1.05 in (2003)
Month to date precipitation 1.05  
Year to date precipitation 10.22  
Snow  
Snow 0.00 in - - ()
Month to date snowfall  
Since 1 July snowfall  
Snow Depth -    
Sea Level Pressure  
Sea Level Pressure 30.15 in    
Wind  
Wind Speed 5 mph (SSW)    
Max Wind Speed 15 mph    
Max Gust Speed 25 mph    
Visibility 10 miles    
Events      
T = Trace of Precipitation, MM = Missing Value Source: NWS Daily Summary

Daily Weather History Graph

Daily Weather History Graph

Search for Another Location

Airport or City:

Trip Planner

Search our weather history database for the weather conditions in past years. The results will help you decide how hot, cold, wet, or windy it might be!

Date:

Astronomy

Apr. 10, 2014 Rise Set
Actual Time 6:59 AM EDT 7:57 PM EDT
Civil Twilight 6:33 AM EDT 8:24 PM EDT
Nautical Twilight 6:01 AM EDT 8:55 PM EDT
Astronomical Twilight 5:29 AM EDT 9:28 PM EDT
Moon 3:46 PM EDT (4/10) 4:15 AM EDT (4/10)
Length of Visible Light 13h 50m
Length of Day
12h 57m
Waxing Gibbous, 79% of the Moon is Illuminated
Apr 10
Waxing Gibbous
Apr 15
Full
Apr 22
Last Quarter
Apr 29
New
May 6
First Quarter

Hourly Weather History & Observations

Time (EDT) Temp. Windchill Dew Point Humidity Pressure Visibility Wind Dir Wind Speed Gust Speed Precip Events Conditions
12:15 AM 50.2 °F - 27.3 °F 41% 30.13 in 10.0 mi Calm Calm - N/A   Clear
12:35 AM 48.4 °F - 28.0 °F 45% 30.13 in 10.0 mi Calm Calm - N/A   Clear
12:55 AM 49.3 °F - 27.5 °F 43% 30.13 in 10.0 mi Calm Calm - N/A   Clear
1:15 AM 48.2 °F - 28.0 °F 46% 30.13 in 10.0 mi Calm Calm - N/A   Clear
1:35 AM 47.3 °F - 28.4 °F 48% 30.12 in 10.0 mi South 3.5 mph - N/A   Clear
1:55 AM 47.5 °F - 28.4 °F 48% 30.13 in 10.0 mi South 3.5 mph - N/A   Clear
2:15 AM 47.5 °F - 28.4 °F 48% 30.13 in 10.0 mi SSW 3.5 mph - N/A   Clear
2:35 AM 46.9 °F - 28.2 °F 48% 30.13 in 10.0 mi South 3.5 mph - N/A   Clear
2:55 AM 46.4 °F 45.2 °F 28.4 °F 50% 30.13 in 10.0 mi South 3.5 mph - N/A   Clear
3:15 AM 46.9 °F - 28.4 °F 49% 30.14 in 10.0 mi South 4.6 mph - N/A   Clear
3:35 AM 47.3 °F - 28.2 °F 48% 30.14 in 10.0 mi South 4.6 mph - N/A   Clear
3:55 AM 47.3 °F - 28.0 °F 47% 30.14 in 10.0 mi SSE 4.6 mph - N/A   Clear
4:15 AM 46.4 °F 44.3 °F 28.2 °F 49% 30.14 in 10.0 mi SSE 4.6 mph - N/A   Clear
4:55 AM 47.7 °F - 27.7 °F 46% 30.14 in 10.0 mi South 4.6 mph - N/A   Clear
5:15 AM 46.8 °F - 28.2 °F 49% 30.15 in 10.0 mi SSE 4.6 mph - N/A   Clear
5:35 AM 46.4 °F 44.3 °F 28.8 °F 50% 30.16 in 10.0 mi SSE 4.6 mph - N/A   Clear
5:55 AM 46.0 °F 43.9 °F 28.9 °F 51% 30.16 in 10.0 mi SSE 4.6 mph - N/A   Clear
6:15 AM 46.6 °F - 28.8 °F 50% 30.17 in 10.0 mi SSE 5.8 mph - N/A   Clear
6:35 AM 45.9 °F 43.6 °F 28.6 °F 51% 30.17 in 10.0 mi SSE 4.6 mph - N/A   Clear
6:55 AM 46.9 °F - 28.4 °F 49% 30.18 in 10.0 mi South 4.6 mph - N/A   Clear
7:15 AM 46.6 °F - 28.4 °F 49% 30.19 in 10.0 mi SSE 3.5 mph - N/A   Clear
7:35 AM 47.3 °F - 28.6 °F 48% 30.19 in 10.0 mi South 3.5 mph - N/A   Clear
7:55 AM 47.7 °F - 28.6 °F 48% 30.20 in 10.0 mi Calm Calm - N/A   Clear
8:15 AM 48.2 °F - 30.2 °F 50% 30.21 in 10.0 mi Calm Calm - N/A   Clear
8:35 AM 49.1 °F - 31.5 °F 51% 30.22 in 10.0 mi Calm Calm - N/A   Clear
8:55 AM 50.9 °F - 31.5 °F 47% 30.22 in 10.0 mi Calm Calm - N/A   Clear
9:15 AM 52.7 °F - 31.3 °F 44% 30.22 in 10.0 mi Calm Calm - N/A   Clear
9:35 AM 54.0 °F - 31.3 °F 42% 30.23 in 10.0 mi SSW 4.6 mph - N/A   Clear
9:55 AM 54.9 °F - 31.8 °F 42% 30.22 in 10.0 mi South 6.9 mph - N/A   Clear
10:15 AM 56.1 °F - 32.0 °F 40% 30.23 in 10.0 mi SW 10.4 mph - N/A   Clear
10:35 AM 56.8 °F - 31.8 °F 39% 30.23 in 10.0 mi SSW 8.1 mph 17.3 mph N/A   Clear
10:55 AM 57.6 °F - 31.8 °F 38% 30.23 in 10.0 mi SW 11.5 mph 17.3 mph N/A   Clear
11:15 AM 58.8 °F - 32.2 °F 37% 30.22 in 10.0 mi SSW 8.1 mph - N/A   Clear
11:35 AM 58.6 °F - 31.6 °F 36% 30.22 in 10.0 mi SSW 12.7 mph 19.6 mph N/A   Clear
11:55 AM 59.9 °F - 31.5 °F 34% 30.21 in 10.0 mi SW 13.8 mph 19.6 mph N/A   Clear
12:15 PM 60.8 °F - 31.1 °F 33% 30.20 in 10.0 mi WSW 15.0 mph 25.3 mph N/A   Clear
12:35 PM 61.7 °F - 30.7 °F 31% 30.19 in 10.0 mi WSW 9.2 mph 20.7 mph N/A   Clear
12:55 PM 61.9 °F - 32.2 °F 33% 30.19 in 10.0 mi SW 6.9 mph 20.7 mph N/A   Clear
1:15 PM 63.0 °F - 32.2 °F 32% 30.18 in 10.0 mi WSW 6.9 mph 17.3 mph N/A   Clear
1:35 PM 63.7 °F - 32.5 °F 31% 30.17 in 10.0 mi WSW 8.1 mph 18.4 mph N/A   Clear
1:55 PM 64.0 °F - 32.0 °F 30% 30.17 in 10.0 mi SW 10.4 mph - N/A   Clear
2:15 PM 65.1 °F - 32.7 °F 30% 30.16 in 10.0 mi South 8.1 mph - N/A   Clear
2:35 PM 65.5 °F - 33.1 °F 30% 30.15 in 10.0 mi SSW 11.5 mph 16.1 mph N/A   Clear
2:55 PM 66.7 °F - 33.6 °F 29% 30.15 in 10.0 mi SW 8.1 mph 16.1 mph N/A   Clear
3:35 PM 67.8 °F - 33.1 °F 28% 30.13 in 10.0 mi SW 11.5 mph - N/A   Clear
3:55 PM 68.2 °F - 32.5 °F 27% 30.12 in 10.0 mi South 8.1 mph 18.4 mph N/A   Clear
4:15 PM 68.2 °F - 32.4 °F 26% 30.12 in 10.0 mi SW 5.8 mph 9.2 mph N/A   Clear
4:35 PM 68.7 °F - 32.4 °F 26% 30.12 in 10.0 mi SW 10.4 mph 16.1 mph N/A   Clear
4:55 PM 69.8 °F - 32.0 °F 25% 30.11 in 10.0 mi South 8.1 mph 16.1 mph N/A   Clear
5:15 PM 69.3 °F - 30.9 °F 24% 30.11 in 10.0 mi South 10.4 mph 20.7 mph N/A   Clear
5:35 PM 69.8 °F - 29.7 °F 22% 30.11 in 10.0 mi SSW 8.1 mph 16.1 mph N/A   Clear
5:55 PM 69.8 °F - 29.7 °F 22% 30.11 in 10.0 mi SSW 6.9 mph - N/A   Clear
6:15 PM 69.1 °F - 28.2 °F 22% 30.10 in 10.0 mi SW 8.1 mph 17.3 mph N/A   Clear
6:35 PM 68.9 °F - 28.0 °F 22% 30.10 in 10.0 mi SW 5.8 mph - N/A   Clear
6:55 PM 68.2 °F - 27.5 °F 22% 30.10 in 10.0 mi SSW 6.9 mph - N/A   Clear
7:15 PM 67.5 °F - 27.1 °F 22% 30.11 in 10.0 mi SW 5.8 mph - N/A   Clear
7:35 PM 67.5 °F - 27.0 °F 22% 30.10 in 10.0 mi SW 8.1 mph - N/A   Clear
7:55 PM 66.2 °F - 28.2 °F 24% 30.10 in 10.0 mi SSW 4.6 mph - N/A   Clear
8:15 PM 65.8 °F - 28.4 °F 25% 30.10 in 10.0 mi SSW 6.9 mph - N/A   Clear
8:35 PM 66.2 °F - 28.9 °F 25% 30.10 in 10.0 mi SW 9.2 mph - N/A   Clear
8:55 PM 65.7 °F - 30.7 °F 27% 30.11 in 10.0 mi South 5.8 mph - N/A   Clear
9:15 PM 64.2 °F - 32.0 °F 30% 30.12 in 10.0 mi WSW 8.1 mph - N/A   Clear
9:35 PM 64.8 °F - 32.0 °F 29% 30.12 in 10.0 mi SW 10.4 mph - N/A   Clear
9:55 PM 64.6 °F - 32.2 °F 30% 30.13 in 10.0 mi SW 11.5 mph - N/A   Clear
10:15 PM 64.6 °F - 32.4 °F 30% 30.14 in 10.0 mi SSW 6.9 mph - N/A   Clear
10:35 PM 64.2 °F - 32.7 °F 31% 30.14 in 10.0 mi SSW 8.1 mph - N/A   Clear
10:55 PM 63.9 °F - 33.4 °F 32% 30.14 in 10.0 mi SW 10.4 mph - N/A   Clear
11:15 PM 63.9 °F - 33.6 °F 32% 30.14 in 10.0 mi SW 9.2 mph - N/A   Clear
11:35 PM 63.0 °F - 33.8 °F 34% 30.14 in 10.0 mi SW 5.8 mph - N/A   Clear
11:55 PM 63.1 °F - 33.8 °F 33% 30.14 in 10.0 mi SSW 6.9 mph - N/A   Clear